RH
4 3 5 6 13 20 17 12 14 15 15 24 23 21 22 48 45 50 40 41 44 36 27 19 12 14 16 17 21 21 20 21 27 32 28 26 27 28 28 29 29 30 33 34 36 36 34 32 29
4 4 4 6 17 20 10 13 20 18 21 26 22 28 20 42 38 40 43 40 31 25 27 20 12 14 15 16 29 28 24 23 31 33 26 26 27 28 28 29 29 29 31 32 35 40 44 44 44
4 4 5 19 23 17 16 16 27 21 27 27 29 34 32 38 38 36 34 29 26 25 25 22 13 13 13 14 26 35 33 29 35 33 26 26 26 27 28 29 30 30 30 30 33 36 38 44 48
5 8 14 17 14 12 14 12 16 18 27 27 34 41 58 54 43 37 23 20 18 27 27 28 17 13 14 17 36 39 38 35 38 30 26 25 25 26 27 28 30 30 29 27 27 30 34 38 46
6 13 17 26 21 10 14 13 14 14 26 26 37 41 43 53 34 27 22 18 18 25 40 34 20 25 31 23 40 40 38 40 40 33 25 25 25 26 27 28 29 30 27 24 24 23 24 27 30
7 16 19 19 16 15 14 12 15 14 19 30 32 37 53 46 26 21 20 20 14 25 33 53 43 53 42 48 41 37 40 48 43 34 26 25 25 26 27 28 30 30 28 23 20 18 19 20 22
6 18 16 18 17 13 10 12 16 15 14 26 32 35 56 51 40 22 20 18 15 22 27 57 63 60 59 50 38 39 48 55 45 29 27 27 27 28 30 31 32 31 24 15 14 14 13 13 14
12 27 24 19 16 13 16 17 18 17 16 27 36 40 48 49 44 27 21 19 19 22 26 50 57 60 56 49 50 58 61 53 29 27 27 28 29 32 34 34 33 25 14 12 11 11 11 11 10
23 26 25 16 12 14 14 20 20 19 17 34 40 39 44 57 51 45 22 21 22 22 24 28 37 52 58 59 62 64 53 30 26 28 32 32 29 27 29 22 14 12 13 12 12 13 13 12 13
20 22 20 14 17 17 15 16 20 18 17 23 39 42 46 53 54 38 26 22 23 23 22 23 32 43 50 52 50 40 29 29 31 28 21 15 13 13 15 14 15 15 14 14 13 12 12 11 11
16 18 21 19 18 18 16 16 16 16 19 21 28 43 42 46 49 48 32 22 23 26 24 24 27 28 38 37 34 32 32 31 24 16 14 15 16 16 17 17 15 12 9 8 8 7 7 7 7
18 16 17 17 18 18 18 17 13 15 16 19 22 28 40 42 36 38 27 24 24 25 26 25 26 28 31 31 32 32 32 22 17 17 18 19 20 21 20 18 15 11 9 9 9 9 9 9 8
18 18 17 18 18 18 19 18 16 12 16 24 28 34 40 43 38 39 31 29 28 27 27 28 27 21 26 27 29 31 25 19 20 22 22 23 23 22 22 19 16 15 15 16 15 14 13 12 11
20 19 19 18 20 21 20 20 20 13 14 23 23 32 38 36 43 43 42 35 32 28 29 29 28 26 23 24 29 27 20 21 24 25 25 26 25 25 24 25 25 25 24 24 24 23 21 20 17
26 24 19 19 18 19 16 20 21 18 18 20 21 27 38 43 53 51 54 49 39 32 32 36 30 30 28 27 28 26 21 24 26 28 28 28 27 27 27 28 28 28 28 28 29 28 24 22 21
31 28 26 18 22 21 20 19 17 16 19 18 20 22 30 35 36 40 59 65 65 40 40 40 37 32 31 32 32 28 23 24 27 28 30 31 30 30 30 30 31 31 30 30 31 32 30 29 26
37 41 32 26 25 23 24 19 17 16 18 19 19 19 22 27 28 46 47 54 63 66 54 44 42 37 33 34 36 33 26 26 27 28 30 32 33 33 32 32 32 33 33 31 30 35 36 33 29
44 40 34 35 30 28 21 15 16 16 20 18 18 17 19 23 25 37 47 50 58 84 72 61 47 36 36 37 39 38 32 29 32 33 35 36 37 37 37 36 36 35 36 35 31 33 37 34 30
43 42 37 35 33 31 29 26 22 21 21 19 19 18 18 19 22 32 39 44 60 56 54 51 59 39 32 45 43 40 38 37 37 38 38 39 39 41 42 42 41 39 39 37 30 33 40 37 35
47 46 42 38 34 32 32 33 31 29 27 23 23 21 20 22 24 33 38 38 40 52 52 47 44 57 34 56 59 54 46 44 43 44 47 45 42 43 45 46 45 43 41 37 29 37 41 39 33
42 43 40 38 38 38 37 35 35 34 31 29 27 25 22 20 22 24 30 40 40 35 41 47 48 49 42 53 70 61 50 46 48 50 51 49 47 48 51 52 50 46 40 31 32 41 40 32 34
46 42 44 44 44 46 42 48 44 38 33 29 28 28 26 24 23 22 24 33 41 39 42 47 42 48 46 42 53 60 65 62 59 57 56 54 53 54 57 55 50 41 32 31 41 38 38 37 37
52 52 53 49 50 54 53 48 44 36 34 28 28 26 26 26 24 23 24 25 31 38 37 43 51 57 48 35 38 48 68 68 63 62 61 59 60 61 61 54 42 33 32 41 42 46 45 32 36
58 56 57 55 52 58 55 49 41 35 36 34 30 28 25 26 25 24 27 29 31 36 44 52 58 61 57 44 47 66 71 66 65 67 67 66 65 66 58 49 38 37 44 50 52 52 45 35 34
58 52 57 62 62 68 45 47 43 42 37 34 29 35 34 30 26 26 28 30 46 59 62 54 56 63 58 45 45 60 65 66 70 72 72 72 70 62 51 40 44 64 68 65 55 45 41 41 37
61 60 58 84 75 56 52 55 51 50 44 39 34 39 37 34 35 42 56 65 75 69 67 67 64 59 34 34 37 42 46 55 69 77 79 78 58 48 44 55 69 64 59 50 48 47 49 43 35
55 62 69 52 52 60 56 58 55 54 58 57 57 49 44 45 44 60 76 71 70 49 43 43 40 36 34 33 35 42 46 54 77 84 85 72 51 47 55 78 82 74 72 73 57 54 43 38 40
54 69 69 85 99 95 61 53 71 70 72 65 62 59 56 60 71 61 59 57 56 49 38 38 42 44 38 35 39 45 56 69 87 92 84 60 54 56 89 95 90 90 88 61 56 49 48 51 43
49 69 69 77 96 99 96 78 86 79 88 79 70 65 58 48 43 59 50 52 48 42 38 37 39 36 37 39 49 58 73 91 97 93 67 60 64 93 96 95 94 91 76 63 62 56 51 42 34
53 50 51 53 72 76 71 81 76 75 85 82 72 68 59 51 53 56 58 54 51 54 47 39 38 42 48 58 74 79 98 100 99 83 60 63 79 98 97 96 89 76 73 72 61 54 45 36 34
Wind_Speed
6 5 6 7 6 9 17 13 21 15 6 4 8 10 8 4 16 9 9 12 7 6 6 12 17 16 13 10 8 5 4 4 5 4 5 6 7 6 7 7 7 7 7 7 7 7 7 7 7
5 6 5 9 7 13 20 12 6 2 10 8 12 9 18 9 5 2 8 7 7 5 7 14 18 17 14 11 7 7 5 4 3 3 4 3 4 4 5 6 7 6 6 6 6 6 6 6 6
7 7 5 5 8 17 18 18 13 8 8 8 11 8 13 16 13 8 7 6 5 8 9 14 17 16 15 13 11 8 5 5 4 3 2 1 1 2 4 5 6 6 6 6 6 5 5 5 5
8 9 7 14 17 17 21 17 12 9 6 8 10 12 8 11 14 16 11 7 8 10 10 13 13 15 14 16 11 8 6 7 6 6 4 3 4 5 5 5 6 7 8 7 7 7 7 7 6
12 6 11 16 19 16 17 28 20 16 8 8 12 14 18 14 14 14 20 13 10 10 11 12 14 15 15 18 13 11 10 10 9 8 7 6 6 7 7 7 8 9 9 9 9 9 9 9 9
9 6 13 19 19 19 27 27 19 20 11 12 19 17 16 17 15 17 17 11 10 12 12 13 15 14 17 16 15 14 13 12 11 10 10 9 10 10 9 10 10 12 13 12 12 12 12 12 12
11 9 20 20 27 26 19 24 20 16 11 14 19 20 16 16 15 20 15 11 10 12 13 14 15 16 17 18 16 16 15 14 14 13 12 11 12 12 11 11 13 15 15 15 15 15 15 16 16
9 10 22 20 22 20 22 10 11 11 11 7 18 19 19 16 17 17 15 14 12 14 15 15 16 17 17 18 17 16 16 14 14 14 14 13 13 14 14 15 16 18 17 16 17 18 19 20 20
7 18 29 24 15 18 20 8 5 6 11 11 22 22 20 14 17 20 19 17 14 15 15 16 16 16 18 18 18 17 17 15 15 15 15 16 16 16 16 18 18 18 19 20 21 22 23 22 22
13 21 26 15 19 27 26 15 6 8 11 18 22 19 21 12 17 20 21 19 16 15 16 14 15 17 18 18 18 17 16 16 16 17 17 17 16 15 17 19 20 22 21 21 22 22 21 19 19
17 27 26 26 21 23 26 26 12 10 12 20 21 22 27 28 23 24 22 20 18 16 17 15 16 18 18 18 18 18 17 17 18 17 15 16 17 17 17 17 18 19 18 18 18 18 18 17 18
19 22 24 26 27 25 22 31 23 19 11 15 28 19 23 28 28 31 25 23 22 19 17 16 18 18 19 20 21 20 19 17 17 16 15 16 15 15 16 16 14 15 15 16 16 16 17 17 17
22 21 26 25 28 29 24 28 33 23 17 10 25 18 19 25 24 25 25 25 25 22 20 20 19 18 20 21 21 20 19 16 16 15 13 13 13 13 14 14 13 15 16 16 16 17 18 18 19
25 29 29 30 31 30 27 23 23 21 25 15 22 19 20 27 23 22 29 29 30 24 22 23 22 20 18 19 20 21 18 16 15 14 12 13 13 13 15 15 15 15 16 17 19 20 21 21 20
24 29 32 33 33 36 29 29 27 23 20 23 21 24 20 24 24 25 26 28 31 28 23 24 26 22 20 21 21 22 20 19 18 16 14 15 15 15 16 18 18 18 18 19 20 20 20 20 19
26 26 32 29 25 22 19 36 22 17 15 18 24 27 26 27 27 26 27 29 33 32 26 24 27 27 25 25 25 24 22 22 22 20 19 19 19 17 18 20 20 21 21 22 22 22 22 22 23
27 29 31 28 15 17 26 35 30 17 22 19 23 28 31 31 31 29 27 33 37 35 33 31 29 31 30 29 29 27 25 26 26 26 24 25 24 22 22 22 22 23 23 24 23 24 25 25 25
27 27 26 28 22 23 21 22 21 20 20 22 20 28 35 36 34 34 33 30 37 40 39 36 33 33 34 34 32 31 29 29 29 29 29 28 28 27 26 25 24 25 26 27 27 28 29 27 27
25 29 29 27 27 26 21 19 21 24 20 19 22 21 34 33 36 34 36 38 40 43 42 40 38 35 35 37 36 34 32 31 31 30 30 29 29 29 27 27 26 26 28 28 27 29 30 30 30
28 33 35 35 30 27 26 30 28 27 28 28 28 28 31 28 33 35 41 44 45 47 46 42 36 36 36 37 37 36 35 35 34 33 29 30 32 31 29 30 28 28 29 28 28 29 30 30 27
31 33 32 31 28 30 32 42 34 32 31 27 35 35 34 35 37 42 39 49 48 49 48 42 37 35 37 38 39 40 39 37 35 32 31 33 33 32 30 29 29 29 28 27 28 29 29 28 26
34 24 29 25 22 20 18 21 27 26 26 31 39 38 39 41 40 40 50 45 48 48 46 40 38 37 37 42 40 38 37 35 33 32 33 34 33 30 30 31 30 29 28 27 28 26 28 27 25
39 29 27 28 28 32 23 22 14 24 25 21 36 38 35 42 45 45 42 46 40 39 40 38 36 36 38 42 41 38 37 38 36 32 33 33 31 30 31 31 30 28 28 27 26 26 25 24 24
19 25 25 27 24 24 16 16 16 15 14 12 12 18 38 41 43 41 38 37 36 37 35 34 35 36 34 37 39 36 38 39 35 32 30 30 30 31 30 31 29 27 26 25 26 24 24 25 23
20 12 3 5 8 8 5 17 22 9 6 8 12 8 13 23 37 37 30 26 30 32 30 31 34 36 34 33 33 35 38 37 35 32 30 29 30 30 31 29 25 23 24 26 27 29 23 21 21
29 25 13 5 5 6 8 8 6 12 7 6 10 7 9 16 17 12 10 20 24 23 25 28 31 34 31 30 28 28 32 36 37 32 28 29 28 30 28 24 23 21 20 20 23 22 20 21 19
38 29 25 32 28 7 8 3 13 12 10 12 13 9 4 10 15 14 13 16 17 23 29 35 36 30 28 30 30 30 32 34 32 29 28 28 30 29 26 22 18 16 19 22 21 20 21 20 21
9 20 15 7 4 5 6 14 7 6 10 22 24 20 15 13 15 26 25 26 27 28 32 33 30 29 31 32 31 31 32 32 30 30 30 31 32 31 27 23 21 19 19 21 20 21 20 21 22
8 13 17 9 7 1 2 3 8 12 10 10 12 11 9 12 8 5 13 16 20 24 30 32 32 34 36 34 29 30 31 31 30 32 33 34 35 29 28 24 17 18 19 21 21 19 20 21 22
15 10 10 6 7 10 4 3 12 13 13 11 14 11 12 13 18 21 18 19 22 26 33 38 37 37 35 32 26 25 27 30 33 34 36 37 35 30 24 18 15 18 19 19 20 18 20 19 18
Wind_Direction
334 313 301 297 298 283 283 296 314 281 251 231 219 212 224 194 187 209 202 177 178 192 207 214 212 212 209 193 175 177 170 154 126 112 89 81 72 56 49 47 42 37 39 36 35 37 34 35 36
317 296 270 274 268 268 288 311 226 319 188 213 244 204 213 248 273 207 143 148 168 230 231 214 214 209 207 196 196 187 179 164 149 144 113 90 67 40 35 33 26 20 22 22 22 21 19 21 20
297 273 273 278 256 260 276 297 267 253 210 212 204 237 217 228 245 246 181 195 225 250 235 219 213 211 210 206 214 205 189 206 200 198 166 155 4 333 358 12 5 357 359 356 353 355 351 355 356
285 263 262 248 260 276 272 291 286 297 263 274 227 228 226 228 249 262 246 225 274 256 235 222 219 213 211 209 221 221 216 224 218 223 224 240 281 296 316 329 335 335 332 327 327 327 326 329 329
270 257 257 259 271 279 292 311 261 246 270 256 239 230 232 228 233 239 244 245 245 232 220 211 210 212 214 211 237 234 233 224 224 232 236 245 265 278 294 302 308 316 314 311 310 310 306 306 310
270 257 255 260 277 290 294 307 251 258 261 252 225 245 220 223 229 231 242 249 225 222 223 214 214 217 212 226 235 232 233 234 234 236 241 249 260 270 278 289 297 302 302 297 296 298 298 298 296
265 224 255 269 285 291 303 317 253 251 271 265 238 232 223 221 226 240 241 241 224 223 225 218 219 221 224 226 230 232 235 236 237 240 246 255 266 273 280 282 284 290 292 291 291 290 290 289 290
253 257 276 271 276 284 341 263 234 238 217 263 238 217 229 234 237 247 246 230 223 224 226 220 222 222 225 228 233 235 238 239 242 248 256 265 272 277 274 275 280 283 284 284 283 284 283 280 280
219 251 260 264 262 316 286 314 273 220 216 225 220 226 248 236 239 249 239 236 225 225 226 228 228 226 228 232 237 238 241 241 249 257 265 269 271 272 272 273 276 277 278 279 281 283 281 287 286
237 259 264 272 280 295 292 278 271 263 241 254 244 228 228 235 236 244 246 241 227 226 230 233 231 232 233 236 240 240 243 248 257 264 267 271 272 272 275 280 283 284 288 291 288 288 288 285 280
230 249 269 275 275 282 289 282 247 237 248 259 260 251 252 241 247 252 242 235 230 227 226 231 235 241 239 241 242 244 251 259 263 265 269 275 280 286 287 289 292 295 295 292 291 294 289 283 280
255 238 257 279 270 269 282 278 271 237 241 262 273 263 252 260 263 255 235 232 231 230 229 233 235 240 243 244 249 254 260 263 266 268 273 281 292 295 295 294 298 296 294 294 296 292 292 290 285
242 248 253 254 262 258 280 269 270 245 214 223 257 249 242 254 264 246 238 232 232 233 236 234 236 246 247 252 259 261 263 261 263 268 278 286 286 293 298 308 310 311 312 308 306 305 302 301 301
265 252 250 245 252 252 253 264 268 253 221 224 263 252 241 257 249 251 242 238 238 231 236 238 240 253 258 259 258 262 262 254 255 263 276 282 287 293 300 302 298 297 297 296 297 295 293 294 294
255 263 259 253 258 263 260 259 247 263 249 220 257 258 250 242 247 252 245 241 249 250 242 239 247 259 260 259 260 262 259 248 251 261 271 278 283 290 292 289 292 294 295 295 296 294 291 290 293
260 260 270 276 275 270 256 258 265 268 254 239 228 256 253 249 262 267 242 241 246 256 249 245 247 253 257 252 256 261 257 253 255 262 267 274 281 285 284 286 288 287 287 292 296 297 297 299 298
261 266 271 284 271 260 260 262 253 264 240 252 238 240 255 252 258 253 257 239 244 250 250 254 249 246 252 253 254 257 257 254 257 261 266 272 277 280 282 287 290 290 289 290 292 296 297 295 296
255 263 271 275 289 301 251 241 249 244 251 230 236 243 235 248 250 249 255 252 248 248 254 252 251 247 250 250 250 254 256 255 256 262 266 270 274 277 279 283 287 287 286 287 289 292 295 294 296
268 264 267 276 282 289 282 268 260 259 253 249 244 245 235 241 248 245 246 250 246 253 258 265 259 257 253 248 248 253 256 260 260 262 266 272 275 274 275 280 283 284 282 282 282 286 292 293 296
260 264 267 274 272 279 285 281 276 272 267 257 260 243 235 231 229 238 239 243 251 253 258 266 278 272 258 249 247 247 252 256 260 263 266 273 275 275 275 276 281 280 277 277 278 284 288 292 294
259 263 270 278 281 275 282 278 279 279 262 265 262 253 239 235 231 234 235 239 241 255 261 267 275 276 261 251 246 248 254 260 262 264 272 276 275 273 272 271 273 274 272 274 278 283 287 291 296
261 258 273 280 276 275 266 291 285 273 270 263 262 262 251 236 237 240 239 238 242 249 258 266 277 280 270 258 254 254 255 256 256 264 271 274 271 269 270 268 269 269 271 273 279 282 289 296 301
262 267 274 268 276 286 286 282 282 282 279 281 269 259 254 242 232 233 236 237 245 253 264 271 273 276 278 264 260 260 257 255 260 265 270 269 269 269 265 264 265 267 270 275 280 289 298 301 299
280 265 267 268 274 265 250 241 307 299 293 235 267 263 246 236 226 225 228 238 244 248 252 262 270 278 278 273 266 262 260 263 265 266 265 266 265 263 262 263 262 265 270 280 289 292 299 302 299
256 263 279 270 224 251 196 232 234 250 256 224 213 134 148 180 204 215 224 238 241 239 246 259 271 284 288 279 269 263 264 266 264 262 261 262 259 257 255 256 260 269 278 284 287 289 292 292 295
239 231 220 215 224 284 260 247 215 221 202 186 204 157 156 166 175 195 231 231 230 241 254 265 272 280 279 282 278 273 269 267 266 269 271 264 258 254 252 255 264 272 280 288 292 285 289 291 296
241 227 238 248 267 296 245 134 164 208 259 263 270 266 219 219 206 198 207 231 251 281 283 284 280 274 271 274 276 272 270 268 267 267 265 256 249 249 249 249 256 275 291 289 281 289 291 295 297
222 222 231 227 207 212 260 221 169 207 255 257 263 273 273 264 244 243 257 266 274 274 270 276 278 277 281 285 282 273 266 264 260 255 252 248 247 242 240 249 260 269 282 275 284 284 289 291 293
229 250 248 237 212 242 307 88 147 155 177 233 258 258 254 258 255 284 297 289 282 279 282 281 280 285 286 286 283 274 265 260 258 253 246 244 241 239 250 258 265 269 269 276 275 281 289 292 293
245 241 261 268 207 216 262 227 169 205 207 236 256 260 264 266 278 292 295 290 275 267 265 271 277 281 286 286 281 271 261 254 249 246 243 242 242 247 252 249 254 260 269 270 278 286 289 292 296